owner,sensor,date,latitude,longitude,vertical_datum,wind_speed,wind_to_direction,wind_speed_of_gust,qcFlag 
DISL,ioos:station:DISL:KATA:1,2015-09-01T00:00:00Z,30.2583,-88.2131,0.0,3.88,199.1,-9999.0,'1111122,1111122,1111122' 
DISL,ioos:station:DISL:KATA:1,2015-09-01T00:30:00Z,30.2583,-88.2131,0.0,4.31,204.9,-9999.0,'1111122,1111122,1111122' 
DISL,ioos:station:DISL:KATA:1,2015-09-01T01:00:00Z,30.2583,-88.2131,0.0,4.32,210.9,-9999.0,'1111122,1111122,1111122' 
DISL,ioos:station:DISL:KATA:1,2015-09-01T01:30:00Z,30.2583,-88.2131,0.0,4.43,205.9,-9999.0,'1111122,1111122,1111122' 
DISL,ioos:station:DISL:KATA:1,2015-09-01T02:00:00Z,30.2583,-88.2131,0.0,4.7,217.8,-9999.0,'1111122,1111122,1111122' 
DISL,ioos:station:DISL:KATA:1,2015-09-01T02:30:00Z,30.2583,-88.2131,0.0,4.32,226.9,-9999.0,'1111122,1111122,1111122' 
DISL,ioos:station:DISL:KATA:1,2015-09-01T03:00:00Z,30.2583,-88.2131,0.0,4.04,232.8,-9999.0,'1111122,1111122,1111122' 
DISL,ioos:station:DISL:KATA:1,2015-09-01T03:30:00Z,30.2583,-88.2131,0.0,3.83,235.9,-9999.0,'1111122,1111122,1111122' 
DISL,ioos:station:DISL:KATA:1,2015-09-01T04:00:00Z,30.2583,-88.2131,0.0,2.97,244.2,-9999.0,'1111122,1111122,1111122' 
DISL,ioos:station:DISL:KATA:1,2015-09-01T04:30:00Z,30.2583,-88.2131,0.0,3.15,245.4,-9999.0,'1111122,1111122,1111122' 
DISL,ioos:station:DISL:KATA:1,2015-09-01T05:00:00Z,30.2583,-88.2131,0.0,2.94,250.0,-9999.0,'1111122,1111122,1111122' 
DISL,ioos:station:DISL:KATA:1,2015-09-01T05:30:00Z,30.2583,-88.2131,0.0,2.58,263.0,-9999.0,'1111122,1111122,1111122' 
DISL,ioos:station:DISL:KATA:1,2015-09-01T06:00:00Z,30.2583,-88.2131,0.0,2.69,273.0,-9999.0,'1111122,1111122,1111122' 
DISL,ioos:station:DISL:KATA:1,2015-09-01T06:30:00Z,30.2583,-88.2131,0.0,3.06,279.2,-9999.0,'1111122,1111122,1111122' 
DISL,ioos:station:DISL:KATA:1,2015-09-01T07:00:00Z,30.2583,-88.2131,0.0,3.74,277.6,-9999.0,'1111122,1111122,1111122' 
DISL,ioos:station:DISL:KATA:1,2015-09-01T07:30:00Z,30.2583,-88.2131,0.0,2.77,271.7,-9999.0,'1111122,1111122,1111122' 
DISL,ioos:station:DISL:KATA:1,2015-09-01T08:00:00Z,30.2583,-88.2131,0.0,2.46,284.4,-9999.0,'1111122,1111122,1111122' 
DISL,ioos:station:DISL:KATA:1,2015-09-01T08:30:00Z,30.2583,-88.2131,0.0,2.97,282.2,-9999.0,'1111122,1111122,1111122' 
DISL,ioos:station:DISL:KATA:1,2015-09-01T09:00:00Z,30.2583,-88.2131,0.0,2.61,277.7,-9999.0,'1111122,1111122,1111122' 
DISL,ioos:station:DISL:KATA:1,2015-09-01T09:30:00Z,30.2583,-88.2131,0.0,2.36,279.9,-9999.0,'1111122,1111122,1111122' 
DISL,ioos:station:DISL:KATA:1,2015-09-01T10:00:00Z,30.2583,-88.2131,0.0,1.97,315.8,-9999.0,'1111122,1111122,1111122' 
DISL,ioos:station:DISL:KATA:1,2015-09-01T10:30:00Z,30.2583,-88.2131,0.0,4.35,13.73,-9999.0,'1111122,1111122,1111122' 
DISL,ioos:station:DISL:KATA:1,2015-09-01T11:00:00Z,30.2583,-88.2131,0.0,3.86,5.819,-9999.0,'1111122,1111122,1111122' 
DISL,ioos:station:DISL:KATA:1,2015-09-01T11:30:00Z,30.2583,-88.2131,0.0,4.35,5.4,-9999.0,'1111122,1111122,1111122' 
DISL,ioos:station:DISL:KATA:1,2015-09-01T12:00:00Z,30.2583,-88.2131,0.0,5.15,11.45,-9999.0,'1111122,1111122,1111122' 
DISL,ioos:station:DISL:KATA:1,2015-09-01T12:30:00Z,30.2583,-88.2131,0.0,4.75,2.975,-9999.0,'1111122,1111122,1111122' 
DISL,ioos:station:DISL:KATA:1,2015-09-01T13:00:00Z,30.2583,-88.2131,0.0,4.48,12.82,-9999.0,'1111122,1111122,1111122' 
DISL,ioos:station:DISL:KATA:1,2015-09-01T13:30:00Z,30.2583,-88.2131,0.0,4.39,18.36,-9999.0,'1111122,1111122,1111122' 
DISL,ioos:station:DISL:KATA:1,2015-09-01T14:00:00Z,30.2583,-88.2131,0.0,4.04,40.26,-9999.0,'1111122,1111122,1111122' 
DISL,ioos:station:DISL:KATA:1,2015-09-01T14:30:00Z,30.2583,-88.2131,0.0,4.07,50.4,-9999.0,'1111122,1111122,1111122' 
DISL,ioos:station:DISL:KATA:1,2015-09-01T15:00:00Z,30.2583,-88.2131,0.0,3.23,51.31,-9999.0,'1111122,1111122,1111122' 
DISL,ioos:station:DISL:KATA:1,2015-09-01T15:30:00Z,30.2583,-88.2131,0.0,2.96,65.55,-9999.0,'1111122,1111122,1111122' 
DISL,ioos:station:DISL:KATA:1,2015-09-01T16:00:00Z,30.2583,-88.2131,0.0,2.19,76.87,-9999.0,'1111122,1111122,1111122' 
DISL,ioos:station:DISL:KATA:1,2015-09-01T16:30:00Z,30.2583,-88.2131,0.0,1.94,75.84,-9999.0,'1111122,1111122,1111122' 
DISL,ioos:station:DISL:KATA:1,2015-09-01T17:00:00Z,30.2583,-88.2131,0.0,1.07,89.7,-9999.0,'1111122,1111122,1111122' 
DISL,ioos:station:DISL:KATA:1,2015-09-01T17:30:00Z,30.2583,-88.2131,0.0,0.63,132.6,-9999.0,'1111122,1111122,1111122' 
DISL,ioos:station:DISL:KATA:1,2015-09-01T18:00:00Z,30.2583,-88.2131,0.0,0.02,213.5,-9999.0,'1111122,1111122,1111122' 
DISL,ioos:station:DISL:KATA:1,2015-09-01T18:30:00Z,30.2583,-88.2131,0.0,0.59,211.1,-9999.0,'1111122,1111122,1111122' 
DISL,ioos:station:DISL:KATA:1,2015-09-01T19:00:00Z,30.2583,-88.2131,0.0,1.89,190.1,-9999.0,'1111122,1111122,1111122' 
DISL,ioos:station:DISL:KATA:1,2015-09-01T19:30:00Z,30.2583,-88.2131,0.0,2.33,203.5,-9999.0,'1111122,1111122,1111122' 
DISL,ioos:station:DISL:KATA:1,2015-09-01T20:00:00Z,30.2583,-88.2131,0.0,2.9,197.4,-9999.0,'1111122,1111122,1111122' 
DISL,ioos:station:DISL:KATA:1,2015-09-01T20:30:00Z,30.2583,-88.2131,0.0,3.31,214.0,-9999.0,'1111122,1111122,1111122' 
DISL,ioos:station:DISL:KATA:1,2015-09-01T21:00:00Z,30.2583,-88.2131,0.0,3.38,211.8,-9999.0,'1111122,1111122,1111122' 
DISL,ioos:station:DISL:KATA:1,2015-09-01T21:30:00Z,30.2583,-88.2131,0.0,3.99,218.8,-9999.0,'1111122,1111122,1111122' 
DISL,ioos:station:DISL:KATA:1,2015-09-01T22:00:00Z,30.2583,-88.2131,0.0,4.19,228.6,-9999.0,'1111122,1111122,1111122' 
DISL,ioos:station:DISL:KATA:1,2015-09-01T22:30:00Z,30.2583,-88.2131,0.0,3.87,217.9,-9999.0,'1111122,1111122,1111122' 
DISL,ioos:station:DISL:KATA:1,2015-09-01T23:00:00Z,30.2583,-88.2131,0.0,4.09,227.4,-9999.0,'1111122,1111122,1111122' 
DISL,ioos:station:DISL:KATA:1,2015-09-01T23:30:00Z,30.2583,-88.2131,0.0,3.16,239.9,-9999.0,'1111122,1111122,1111122' 
DISL,ioos:station:DISL:KATA:1,2015-09-02T00:00:00Z,30.2583,-88.2131,0.0,3.43,238.3,-9999.0,'1111122,1111122,1111122' 
DISL,ioos:station:DISL:KATA:1,2015-09-02T00:30:00Z,30.2583,-88.2131,0.0,3.9,236.3,-9999.0,'1111122,1111122,1111122' 
DISL,ioos:station:DISL:KATA:1,2015-09-02T01:00:00Z,30.2583,-88.2131,0.0,3.74,230.9,-9999.0,'1111122,1111122,1111122' 
DISL,ioos:station:DISL:KATA:1,2015-09-02T01:30:00Z,30.2583,-88.2131,0.0,3.63,237.4,-9999.0,'1111122,1111122,1111122' 
DISL,ioos:station:DISL:KATA:1,2015-09-02T02:00:00Z,30.2583,-88.2131,0.0,3.15,256.6,-9999.0,'1111122,1111122,1111122' 
DISL,ioos:station:DISL:KATA:1,2015-09-02T02:30:00Z,30.2583,-88.2131,0.0,3.45,274.8,-9999.0,'1111122,1111122,1111122' 
DISL,ioos:station:DISL:KATA:1,2015-09-02T03:00:00Z,30.2583,-88.2131,0.0,3.12,281.0,-9999.0,'1111122,1111122,1111122' 
DISL,ioos:station:DISL:KATA:1,2015-09-02T03:30:00Z,30.2583,-88.2131,0.0,3.15,280.5,-9999.0,'1111122,1111122,1111122' 
DISL,ioos:station:DISL:KATA:1,2015-09-02T04:00:00Z,30.2583,-88.2131,0.0,3.34,278.8,-9999.0,'1111122,1111122,1111122' 
DISL,ioos:station:DISL:KATA:1,2015-09-02T04:30:00Z,30.2583,-88.2131,0.0,3.28,284.9,-9999.0,'1111122,1111122,1111122' 
DISL,ioos:station:DISL:KATA:1,2015-09-02T05:00:00Z,30.2583,-88.2131,0.0,3.29,272.9,-9999.0,'1111122,1111122,1111122' 
DISL,ioos:station:DISL:KATA:1,2015-09-02T05:30:00Z,30.2583,-88.2131,0.0,3.44,278.7,-9999.0,'1111122,1111122,1111122' 
DISL,ioos:station:DISL:KATA:1,2015-09-02T06:00:00Z,30.2583,-88.2131,0.0,3.53,276.2,-9999.0,'1111122,1111122,1111122' 
DISL,ioos:station:DISL:KATA:1,2015-09-02T06:30:00Z,30.2583,-88.2131,0.0,3.63,273.0,-9999.0,'1111122,1111122,1111122' 
DISL,ioos:station:DISL:KATA:1,2015-09-02T07:00:00Z,30.2583,-88.2131,0.0,3.18,268.9,-9999.0,'1111122,1111122,1111122' 
DISL,ioos:station:DISL:KATA:1,2015-09-02T07:30:00Z,30.2583,-88.2131,0.0,3.78,260.6,-9999.0,'1111122,1111122,1111122' 
DISL,ioos:station:DISL:KATA:1,2015-09-02T08:00:00Z,30.2583,-88.2131,0.0,3.82,275.3,-9999.0,'1111122,1111122,1111122' 
DISL,ioos:station:DISL:KATA:1,2015-09-02T08:30:00Z,30.2583,-88.2131,0.0,3.12,292.2,-9999.0,'1111122,1111122,1111122' 
DISL,ioos:station:DISL:KATA:1,2015-09-02T09:00:00Z,30.2583,-88.2131,0.0,3.18,338.7,-9999.0,'1111122,1111122,1111122' 
DISL,ioos:station:DISL:KATA:1,2015-09-02T09:30:00Z,30.2583,-88.2131,0.0,2.6,359.7,-9999.0,'1111122,1111122,1111122' 
DISL,ioos:station:DISL:KATA:1,2015-09-02T10:00:00Z,30.2583,-88.2131,0.0,2.83,30.96,-9999.0,'1111122,1111122,1111122' 
DISL,ioos:station:DISL:KATA:1,2015-09-02T10:30:00Z,30.2583,-88.2131,0.0,1.77,17.9,-9999.0,'1111122,1111122,1111122' 
DISL,ioos:station:DISL:KATA:1,2015-09-02T11:00:00Z,30.2583,-88.2131,0.0,2.57,10.5,-9999.0,'1111122,1111122,1111122' 
DISL,ioos:station:DISL:KATA:1,2015-09-02T11:30:00Z,30.2583,-88.2131,0.0,2.06,3.806,-9999.0,'1111122,1111122,1111122' 
DISL,ioos:station:DISL:KATA:1,2015-09-02T12:00:00Z,30.2583,-88.2131,0.0,2.74,352.4,-9999.0,'1111122,1111122,1111122' 
DISL,ioos:station:DISL:KATA:1,2015-09-02T12:30:00Z,30.2583,-88.2131,0.0,2.8,3.747,-9999.0,'1111122,1111122,1111122' 
DISL,ioos:station:DISL:KATA:1,2015-09-02T13:00:00Z,30.2583,-88.2131,0.0,3.13,12.5,-9999.0,'1111122,1111122,1111122' 
DISL,ioos:station:DISL:KATA:1,2015-09-02T13:30:00Z,30.2583,-88.2131,0.0,3.43,22.77,-9999.0,'1111122,1111122,1111122' 
DISL,ioos:station:DISL:KATA:1,2015-09-02T14:00:00Z,30.2583,-88.2131,0.0,2.69,34.85,-9999.0,'1111122,1111122,1111122' 
DISL,ioos:station:DISL:KATA:1,2015-09-02T14:30:00Z,30.2583,-88.2131,0.0,2.97,48.75,-9999.0,'1111122,1111122,1111122' 
DISL,ioos:station:DISL:KATA:1,2015-09-02T15:00:00Z,30.2583,-88.2131,0.0,1.88,61.01,-9999.0,'1111122,1111122,1111122' 
DISL,ioos:station:DISL:KATA:1,2015-09-02T15:30:00Z,30.2583,-88.2131,0.0,1.75,75.09,-9999.0,'1111122,1111122,1111122' 
DISL,ioos:station:DISL:KATA:1,2015-09-02T16:00:00Z,30.2583,-88.2131,0.0,2.1,84.0,-9999.0,'1111122,1111122,1111122' 
DISL,ioos:station:DISL:KATA:1,2015-09-02T16:30:00Z,30.2583,-88.2131,0.0,1.56,96.7,-9999.0,'1111122,1111122,1111122' 
DISL,ioos:station:DISL:KATA:1,2015-09-02T17:00:00Z,30.2583,-88.2131,0.0,0.38,158.0,-9999.0,'1111122,1111122,1111122' 
DISL,ioos:station:DISL:KATA:1,2015-09-02T17:30:00Z,30.2583,-88.2131,0.0,1.66,174.8,-9999.0,'1111122,1111122,1111122' 
DISL,ioos:station:DISL:KATA:1,2015-09-02T18:00:00Z,30.2583,-88.2131,0.0,1.65,179.2,-9999.0,'1111122,1111122,1111122' 
DISL,ioos:station:DISL:KATA:1,2015-09-02T18:30:00Z,30.2583,-88.2131,0.0,2.41,196.1,-9999.0,'1111122,1111122,1111122' 
DISL,ioos:station:DISL:KATA:1,2015-09-02T19:00:00Z,30.2583,-88.2131,0.0,2.13,222.0,-9999.0,'1111122,1111122,1111122' 
DISL,ioos:station:DISL:KATA:1,2015-09-02T19:30:00Z,30.2583,-88.2131,0.0,2.14,226.1,-9999.0,'1111122,1111122,1111122' 
DISL,ioos:station:DISL:KATA:1,2015-09-02T20:00:00Z,30.2583,-88.2131,0.0,2.61,223.4,-9999.0,'1111122,1111122,1111122' 
DISL,ioos:station:DISL:KATA:1,2015-09-02T20:30:00Z,30.2583,-88.2131,0.0,2.99,217.6,-9999.0,'1111122,1111122,1111122' 
DISL,ioos:station:DISL:KATA:1,2015-09-02T21:00:00Z,30.2583,-88.2131,0.0,3.34,223.1,-9999.0,'1111122,1111122,1111122' 
DISL,ioos:station:DISL:KATA:1,2015-09-02T21:30:00Z,30.2583,-88.2131,0.0,3.75,235.5,-9999.0,'1111122,1111122,1111122' 
DISL,ioos:station:DISL:KATA:1,2015-09-02T22:00:00Z,30.2583,-88.2131,0.0,4.6,230.7,-9999.0,'1111122,1111122,1111122' 
DISL,ioos:station:DISL:KATA:1,2015-09-02T22:30:00Z,30.2583,-88.2131,0.0,5.19,240.9,-9999.0,'1111122,1111122,1111122' 
DISL,ioos:station:DISL:KATA:1,2015-09-02T23:00:00Z,30.2583,-88.2131,0.0,4.66,240.6,-9999.0,'1111122,1111122,1111122' 
DISL,ioos:station:DISL:KATA:1,2015-09-02T23:30:00Z,30.2583,-88.2131,0.0,4.75,250.2,-9999.0,'1111122,1111122,1111122' 
DISL,ioos:station:DISL:KATA:1,2015-09-03T00:00:00Z,30.2583,-88.2131,0.0,4.14,252.4,-9999.0,'1111122,1111122,1111122' 
DISL,ioos:station:DISL:KATA:1,2015-09-03T00:30:00Z,30.2583,-88.2131,0.0,3.27,252.8,-9999.0,'1111122,1111122,1111122' 
DISL,ioos:station:DISL:KATA:1,2015-09-03T01:00:00Z,30.2583,-88.2131,0.0,2.53,278.1,-9999.0,'1111122,1111122,1111122' 
DISL,ioos:station:DISL:KATA:1,2015-09-03T01:30:00Z,30.2583,-88.2131,0.0,1.76,264.4,-9999.0,'1111122,1111122,1111122' 
DISL,ioos:station:DISL:KATA:1,2015-09-03T02:00:00Z,30.2583,-88.2131,0.0,1.48,254.6,-9999.0,'1111122,1111122,1111122' 
DISL,ioos:station:DISL:KATA:1,2015-09-03T02:30:00Z,30.2583,-88.2131,0.0,0.94,264.4,-9999.0,'1111122,1111122,1111122' 
DISL,ioos:station:DISL:KATA:1,2015-09-03T03:00:00Z,30.2583,-88.2131,0.0,2.35,230.2,-9999.0,'1111122,1111122,1111122' 
DISL,ioos:station:DISL:KATA:1,2015-09-03T03:30:00Z,30.2583,-88.2131,0.0,2.54,230.1,-9999.0,'1111122,1111122,1111122' 
DISL,ioos:station:DISL:KATA:1,2015-09-03T04:00:00Z,30.2583,-88.2131,0.0,2.93,232.1,-9999.0,'1111122,1111122,1111122' 
DISL,ioos:station:DISL:KATA:1,2015-09-03T04:30:00Z,30.2583,-88.2131,0.0,3.08,234.9,-9999.0,'1111122,1111122,1111122' 
DISL,ioos:station:DISL:KATA:1,2015-09-03T05:00:00Z,30.2583,-88.2131,0.0,2.99,243.3,-9999.0,'1111122,1111122,1111122' 
DISL,ioos:station:DISL:KATA:1,2015-09-03T05:30:00Z,30.2583,-88.2131,0.0,2.45,227.4,-9999.0,'1111122,1111122,1111122' 
DISL,ioos:station:DISL:KATA:1,2015-09-03T06:00:00Z,30.2583,-88.2131,0.0,2.47,232.1,-9999.0,'1111122,1111122,1111122' 
DISL,ioos:station:DISL:KATA:1,2015-09-03T06:30:00Z,30.2583,-88.2131,0.0,1.79,243.1,-9999.0,'1111122,1111122,1111122' 
DISL,ioos:station:DISL:KATA:1,2015-09-03T07:00:00Z,30.2583,-88.2131,0.0,1.75,250.4,-9999.0,'1111122,1111122,1111122' 
DISL,ioos:station:DISL:KATA:1,2015-09-03T07:30:00Z,30.2583,-88.2131,0.0,0.77,278.4,-9999.0,'1111122,1111122,1111122' 
DISL,ioos:station:DISL:KATA:1,2015-09-03T08:00:00Z,30.2583,-88.2131,0.0,1.32,311.6,-9999.0,'1111122,1111122,1111122' 
DISL,ioos:station:DISL:KATA:1,2015-09-03T08:30:00Z,30.2583,-88.2131,0.0,2.58,16.45,-9999.0,'1111122,1111122,1111122' 
DISL,ioos:station:DISL:KATA:1,2015-09-03T09:00:00Z,30.2583,-88.2131,0.0,2.41,30.28,-9999.0,'1111122,1111122,1111122' 
DISL,ioos:station:DISL:KATA:1,2015-09-03T09:30:00Z,30.2583,-88.2131,0.0,2.33,23.73,-9999.0,'1111122,1111122,1111122' 
DISL,ioos:station:DISL:KATA:1,2015-09-03T10:00:00Z,30.2583,-88.2131,0.0,1.62,27.37,-9999.0,'1111122,1111122,1111122' 
DISL,ioos:station:DISL:KATA:1,2015-09-03T10:30:00Z,30.2583,-88.2131,0.0,1.95,17.86,-9999.0,'1111122,1111122,1111122' 
DISL,ioos:station:DISL:KATA:1,2015-09-03T11:00:00Z,30.2583,-88.2131,0.0,2.3,20.37,-9999.0,'1111122,1111122,1111122' 
DISL,ioos:station:DISL:KATA:1,2015-09-03T11:30:00Z,30.2583,-88.2131,0.0,3.06,22.55,-9999.0,'1111122,1111122,1111122' 
DISL,ioos:station:DISL:KATA:1,2015-09-03T12:00:00Z,30.2583,-88.2131,0.0,3.71,19.17,-9999.0,'1111122,1111122,1111122' 
DISL,ioos:station:DISL:KATA:1,2015-09-03T12:30:00Z,30.2583,-88.2131,0.0,3.91,7.086,-9999.0,'1111122,1111122,1111122' 
DISL,ioos:station:DISL:KATA:1,2015-09-03T13:00:00Z,30.2583,-88.2131,0.0,4.07,9.89,-9999.0,'1111122,1111122,1111122' 
DISL,ioos:station:DISL:KATA:1,2015-09-03T13:30:00Z,30.2583,-88.2131,0.0,3.64,17.24,-9999.0,'1111122,1111122,1111122' 
DISL,ioos:station:DISL:KATA:1,2015-09-03T14:00:00Z,30.2583,-88.2131,0.0,3.63,14.72,-9999.0,'1111122,1111122,1111122' 
DISL,ioos:station:DISL:KATA:1,2015-09-03T14:30:00Z,30.2583,-88.2131,0.0,2.16,21.43,-9999.0,'1111122,1111122,1111122' 
DISL,ioos:station:DISL:KATA:1,2015-09-03T15:00:00Z,30.2583,-88.2131,0.0,1.36,35.15,-9999.0,'1111122,1111122,1111122' 
DISL,ioos:station:DISL:KATA:1,2015-09-03T15:30:00Z,30.2583,-88.2131,0.0,0.02,122.7,-9999.0,'1111122,1111122,1111122' 
DISL,ioos:station:DISL:KATA:1,2015-09-03T16:00:00Z,30.2583,-88.2131,0.0,0.2,190.9,-9999.0,'1111122,1111122,1111122' 
DISL,ioos:station:DISL:KATA:1,2015-09-03T16:30:00Z,30.2583,-88.2131,0.0,0.48,195.3,-9999.0,'1111122,1111122,1111122' 
DISL,ioos:station:DISL:KATA:1,2015-09-03T17:00:00Z,30.2583,-88.2131,0.0,4.47,216.2,-9999.0,'1111122,1111122,1111122' 
DISL,ioos:station:DISL:KATA:1,2015-09-03T17:30:00Z,30.2583,-88.2131,0.0,2.8,207.1,-9999.0,'1111122,1111122,1111122' 
DISL,ioos:station:DISL:KATA:1,2015-09-03T18:00:00Z,30.2583,-88.2131,0.0,3.01,217.8,-9999.0,'1111122,1111122,1111122' 
DISL,ioos:station:DISL:KATA:1,2015-09-03T18:30:00Z,30.2583,-88.2131,0.0,2.62,218.0,-9999.0,'1111122,1111122,1111122' 
DISL,ioos:station:DISL:KATA:1,2015-09-03T19:00:00Z,30.2583,-88.2131,0.0,3.86,212.5,-9999.0,'1111122,1111122,1111122' 
DISL,ioos:station:DISL:KATA:1,2015-09-03T19:30:00Z,30.2583,-88.2131,0.0,4.25,206.5,-9999.0,'1111122,1111122,1111122' 
DISL,ioos:station:DISL:KATA:1,2015-09-03T20:00:00Z,30.2583,-88.2131,0.0,4.67,205.4,-9999.0,'1111122,1111122,1111122' 
DISL,ioos:station:DISL:KATA:1,2015-09-03T20:30:00Z,30.2583,-88.2131,0.0,6.49,212.8,-9999.0,'1111122,1111122,1111122' 
DISL,ioos:station:DISL:KATA:1,2015-09-03T21:00:00Z,30.2583,-88.2131,0.0,7.06,220.2,-9999.0,'1111122,1111122,1111122' 
DISL,ioos:station:DISL:KATA:1,2015-09-03T21:30:00Z,30.2583,-88.2131,0.0,5.8,220.7,-9999.0,'1111122,1111122,1111122' 
DISL,ioos:station:DISL:KATA:1,2015-09-03T22:00:00Z,30.2583,-88.2131,0.0,4.47,230.6,-9999.0,'1111122,1111122,1111122' 
DISL,ioos:station:DISL:KATA:1,2015-09-03T22:30:00Z,30.2583,-88.2131,0.0,3.59,250.9,-9999.0,'1111122,1111122,1111122' 
DISL,ioos:station:DISL:KATA:1,2015-09-03T23:00:00Z,30.2583,-88.2131,0.0,2.68,272.0,-9999.0,'1111122,1111122,1111122' 
DISL,ioos:station:DISL:KATA:1,2015-09-03T23:30:00Z,30.2583,-88.2131,0.0,2.48,256.2,-9999.0,'1111122,1111122,1111122' 
DISL,ioos:station:DISL:KATA:1,2015-09-04T00:00:00Z,30.2583,-88.2131,0.0,3.56,255.6,-9999.0,'1111122,1111122,1111122' 
DISL,ioos:station:DISL:KATA:1,2015-09-04T00:30:00Z,30.2583,-88.2131,0.0,3.83,253.5,-9999.0,'1111122,1111122,1111122' 
DISL,ioos:station:DISL:KATA:1,2015-09-04T01:00:00Z,30.2583,-88.2131,0.0,4.51,240.1,-9999.0,'1111122,1111122,1111122' 
DISL,ioos:station:DISL:KATA:1,2015-09-04T01:30:00Z,30.2583,-88.2131,0.0,3.83,230.5,-9999.0,'1111122,1111122,1111122' 
DISL,ioos:station:DISL:KATA:1,2015-09-04T02:00:00Z,30.2583,-88.2131,0.0,3.4,226.8,-9999.0,'1111122,1111122,1111122' 
DISL,ioos:station:DISL:KATA:1,2015-09-04T02:30:00Z,30.2583,-88.2131,0.0,2.85,238.8,-9999.0,'1111122,1111122,1111122' 
DISL,ioos:station:DISL:KATA:1,2015-09-04T03:00:00Z,30.2583,-88.2131,0.0,2.52,241.5,-9999.0,'1111122,1111122,1111122' 
DISL,ioos:station:DISL:KATA:1,2015-09-04T03:30:00Z,30.2583,-88.2131,0.0,2.37,260.0,-9999.0,'1111122,1111122,1111122' 
DISL,ioos:station:DISL:KATA:1,2015-09-04T04:00:00Z,30.2583,-88.2131,0.0,3.44,256.1,-9999.0,'1111122,1111122,1111122' 
DISL,ioos:station:DISL:KATA:1,2015-09-04T04:30:00Z,30.2583,-88.2131,0.0,3.38,253.0,-9999.0,'1111122,1111122,1111122' 
DISL,ioos:station:DISL:KATA:1,2015-09-04T05:00:00Z,30.2583,-88.2131,0.0,3.67,233.0,-9999.0,'1111122,1111122,1111122' 
DISL,ioos:station:DISL:KATA:1,2015-09-04T05:30:00Z,30.2583,-88.2131,0.0,3.96,226.8,-9999.0,'1111122,1111122,1111122' 
DISL,ioos:station:DISL:KATA:1,2015-09-04T06:00:00Z,30.2583,-88.2131,0.0,4.19,224.7,-9999.0,'1111122,1111122,1111122' 
DISL,ioos:station:DISL:KATA:1,2015-09-04T06:30:00Z,30.2583,-88.2131,0.0,3.58,231.2,-9999.0,'1111122,1111122,1111122' 
DISL,ioos:station:DISL:KATA:1,2015-09-04T07:00:00Z,30.2583,-88.2131,0.0,2.96,241.7,-9999.0,'1111122,1111122,1111122' 
DISL,ioos:station:DISL:KATA:1,2015-09-04T07:30:00Z,30.2583,-88.2131,0.0,2.17,240.2,-9999.0,'1111122,1111122,1111122' 
DISL,ioos:station:DISL:KATA:1,2015-09-04T08:00:00Z,30.2583,-88.2131,0.0,2.54,255.1,-9999.0,'1111122,1111122,1111122' 
DISL,ioos:station:DISL:KATA:1,2015-09-04T08:30:00Z,30.2583,-88.2131,0.0,2.91,260.8,-9999.0,'1111122,1111122,1111122' 
DISL,ioos:station:DISL:KATA:1,2015-09-04T09:00:00Z,30.2583,-88.2131,0.0,3.08,246.7,-9999.0,'1111122,1111122,1111122' 
DISL,ioos:station:DISL:KATA:1,2015-09-04T09:30:00Z,30.2583,-88.2131,0.0,2.56,252.8,-9999.0,'1111122,1111122,1111122' 
DISL,ioos:station:DISL:KATA:1,2015-09-04T10:00:00Z,30.2583,-88.2131,0.0,2.66,241.4,-9999.0,'1111122,1111122,1111122' 
DISL,ioos:station:DISL:KATA:1,2015-09-04T10:30:00Z,30.2583,-88.2131,0.0,2.7,249.5,-9999.0,'1111122,1111122,1111122' 
DISL,ioos:station:DISL:KATA:1,2015-09-04T11:00:00Z,30.2583,-88.2131,0.0,2.07,243.7,-9999.0,'1111122,1111122,1111122' 
DISL,ioos:station:DISL:KATA:1,2015-09-04T11:30:00Z,30.2583,-88.2131,0.0,2.05,252.4,-9999.0,'1111122,1111122,1111122' 
DISL,ioos:station:DISL:KATA:1,2015-09-04T12:00:00Z,30.2583,-88.2131,0.0,1.76,266.4,-9999.0,'1111122,1111122,1111122' 
DISL,ioos:station:DISL:KATA:1,2015-09-04T12:30:00Z,30.2583,-88.2131,0.0,2.52,264.6,-9999.0,'1111122,1111122,1111122' 
DISL,ioos:station:DISL:KATA:1,2015-09-04T13:00:00Z,30.2583,-88.2131,0.0,1.63,284.8,-9999.0,'1111122,1111122,1111122' 
DISL,ioos:station:DISL:KATA:1,2015-09-04T13:30:00Z,30.2583,-88.2131,0.0,2.18,287.8,-9999.0,'1111122,1111122,1111122' 
DISL,ioos:station:DISL:KATA:1,2015-09-04T14:00:00Z,30.2583,-88.2131,0.0,3.6,18.96,-9999.0,'1111122,1111122,1111122' 
DISL,ioos:station:DISL:KATA:1,2015-09-04T14:30:00Z,30.2583,-88.2131,0.0,2.56,6.176,-9999.0,'1111122,1111122,1111122' 
DISL,ioos:station:DISL:KATA:1,2015-09-04T15:00:00Z,30.2583,-88.2131,0.0,1.45,342.2,-9999.0,'1111122,1111122,1111122' 
DISL,ioos:station:DISL:KATA:1,2015-09-04T15:30:00Z,30.2583,-88.2131,0.0,1.37,324.5,-9999.0,'1111122,1111122,1111122' 
DISL,ioos:station:DISL:KATA:1,2015-09-04T16:00:00Z,30.2583,-88.2131,0.0,0.16,277.1,-9999.0,'1111122,1111122,1111122' 
DISL,ioos:station:DISL:KATA:1,2015-09-04T16:30:00Z,30.2583,-88.2131,0.0,0.73,275.1,-9999.0,'1111122,1111122,1111122' 
DISL,ioos:station:DISL:KATA:1,2015-09-04T17:00:00Z,30.2583,-88.2131,0.0,1.39,283.4,-9999.0,'1111122,1111122,1111122' 
DISL,ioos:station:DISL:KATA:1,2015-09-04T17:30:00Z,30.2583,-88.2131,0.0,0.35,286.9,-9999.0,'1111122,1111122,1111122' 
DISL,ioos:station:DISL:KATA:1,2015-09-04T18:00:00Z,30.2583,-88.2131,0.0,1.81,198.1,-9999.0,'1111122,1111122,1111122' 
DISL,ioos:station:DISL:KATA:1,2015-09-04T18:30:00Z,30.2583,-88.2131,0.0,1.64,210.5,-9999.0,'1111122,1111122,1111122' 
DISL,ioos:station:DISL:KATA:1,2015-09-04T19:00:00Z,30.2583,-88.2131,0.0,2.19,185.0,-9999.0,'1111122,1111122,1111122' 
DISL,ioos:station:DISL:KATA:1,2015-09-04T19:30:00Z,30.2583,-88.2131,0.0,2.53,203.8,-9999.0,'1111122,1111122,1111122' 
DISL,ioos:station:DISL:KATA:1,2015-09-04T20:00:00Z,30.2583,-88.2131,0.0,2.62,197.6,-9999.0,'1111122,1111122,1111122' 
DISL,ioos:station:DISL:KATA:1,2015-09-04T20:30:00Z,30.2583,-88.2131,0.0,3.31,208.0,-9999.0,'1111122,1111122,1111122' 
DISL,ioos:station:DISL:KATA:1,2015-09-04T21:00:00Z,30.2583,-88.2131,0.0,3.63,221.8,-9999.0,'1111122,1111122,1111122' 
DISL,ioos:station:DISL:KATA:1,2015-09-04T21:30:00Z,30.2583,-88.2131,0.0,3.89,218.4,-9999.0,'1111122,1111122,1111122' 
DISL,ioos:station:DISL:KATA:1,2015-09-04T22:00:00Z,30.2583,-88.2131,0.0,4.62,223.0,-9999.0,'1111122,1111122,1111122' 
DISL,ioos:station:DISL:KATA:1,2015-09-04T22:30:00Z,30.2583,-88.2131,0.0,5.86,231.0,-9999.0,'1111122,1111122,1111122' 
DISL,ioos:station:DISL:KATA:1,2015-09-04T23:00:00Z,30.2583,-88.2131,0.0,6.31,229.4,-9999.0,'1111122,1111122,1111122' 
DISL,ioos:station:DISL:KATA:1,2015-09-04T23:30:00Z,30.2583,-88.2131,0.0,6.15,235.9,-9999.0,'1111122,1111122,1111122' 
DISL,ioos:station:DISL:KATA:1,2015-09-05T00:00:00Z,30.2583,-88.2131,0.0,5.85,240.4,-9999.0,'1111122,1111122,1111122' 
DISL,ioos:station:DISL:KATA:1,2015-09-05T00:30:00Z,30.2583,-88.2131,0.0,4.56,255.9,-9999.0,'1111122,1111122,1111122' 
DISL,ioos:station:DISL:KATA:1,2015-09-05T01:00:00Z,30.2583,-88.2131,0.0,4.04,258.9,-9999.0,'1111122,1111122,1111122' 
DISL,ioos:station:DISL:KATA:1,2015-09-05T01:30:00Z,30.2583,-88.2131,0.0,4.59,257.9,-9999.0,'1111122,1111122,1111122' 
DISL,ioos:station:DISL:KATA:1,2015-09-05T02:00:00Z,30.2583,-88.2131,0.0,3.96,266.4,-9999.0,'1111122,1111122,1111122' 
DISL,ioos:station:DISL:KATA:1,2015-09-05T02:30:00Z,30.2583,-88.2131,0.0,4.24,265.9,-9999.0,'1111122,1111122,1111122' 
DISL,ioos:station:DISL:KATA:1,2015-09-05T03:00:00Z,30.2583,-88.2131,0.0,4.72,268.6,-9999.0,'1111122,1111122,1111122' 
DISL,ioos:station:DISL:KATA:1,2015-09-05T03:30:00Z,30.2583,-88.2131,0.0,3.93,268.2,-9999.0,'1111122,1111122,1111122' 
DISL,ioos:station:DISL:KATA:1,2015-09-05T04:00:00Z,30.2583,-88.2131,0.0,3.61,275.9,-9999.0,'1111122,1111122,1111122' 
DISL,ioos:station:DISL:KATA:1,2015-09-05T04:30:00Z,30.2583,-88.2131,0.0,3.61,285.1,-9999.0,'1111122,1111122,1111122' 